Regional Weather Roundup
Issued by NWS Newport/Morehead, NC

Current Version | Previous Version | Graphics & Text | Print | Product List | Glossary On
Versions: 1 2 3 4 5 6 7 8 9 10 11 12 13 14 15 16 17 18 19 20 21 22 23 24 25 26 27 28 29 30 31 32 33 34 35 36 37 38 39 40 41 42 43 44 45 46 47 48 49 50
000 ASUS42 KMHX 021513 RWRMHX WEATHER ROUNDUP FOR EASTERN NORTH CAROLINA NATIONAL WEATHER SERVICE NEWPORT/MOREHEAD CITY NC 1100 AM EDT MON MAY 02 2016 NOTE: "FAIR" INDICATES FEW OR NO CLOUDS BELOW 12,000 FEET WITH NO SIGNIFICANT WEATHER AND/OR OBSTRUCTIONS TO VISIBILITY NCZ015>017-031-032-045>047-102-103-021600- NORTH COAST CITY SKY/WX TMP DP RH WIND PRES REMARKS EDENTON PTSUNNY 76 69 79 SW9 30.03F ELIZABETH CITY MOSUNNY 76 68 76 SW14 30.01S KITTY HAWK CLOUDY 75 68 80 SW10G21 30.02S MANTEO NOT AVBL $$ NCZ045>047-081-094-103-104-021600- CENTRAL COAST CITY SKY/WX TMP DP RH WIND PRES REMARKS FRISCO MOSUNNY 74 69 85 SW12G18 30.06F SWANQUARTER NOT AVBL $$ NCZ095-097-098-100-101-021600- SOUTHERN COAST CITY SKY/WX TMP DP RH WIND PRES REMARKS BEAUFORT PTSUNNY 75 70 84 SW14 30.07F CEDAR ISLAND NOT AVBL JACKSONVILLE CLOUDY 76 69 79 SW7 30.05F PINEY ISLAND NOT AVBL WILMINGTON PTSUNNY 81 69 67 SW13 30.06S $$ NCZ011>013-027>030-043-044-078>080-089-090>093-098-021600- COASTAL PLAIN CITY SKY/WX TMP DP RH WIND PRES REMARKS AHOSKIE MOSUNNY 75 67 76 S6 30.01S CLINTON CLOUDY 76 70 80 SW10 30.05S ELIZABETHTOWN MOSUNNY 77 68 74 SW7 30.06S GOLDSBORO CLOUDY 77 73 88 SW10 30.02S GREENVILLE CLOUDY 79 70 73 SW10 30.04F HAVELOCK CLOUDY 79 69 71 SW15 30.06F KENANSVILLE CLOUDY 76 67 74 SW7 30.06S KINSTON PTSUNNY 79 68 69 SW12G17 30.04F NEW BERN CLOUDY 77 68 73 SW9 30.06F RICHLANDS PTSUNNY 78 70 76 SW12 30.06F ROCKY MOUNT CLOUDY 77 67 71 SW10G17 30.02S WASHINGTON CLOUDY 78 68 72 W10G17 30.03F WHITEVILLE CLOUDY 75 68 79 SW5 30.06S $$ AMZ130-135-150-152-154-156-158-170-250-252-270-ANZ085-086-088-633-658-670-021600- MARINE OBSERVATIONS STATION/POSITION TIME TEMP WIND PRES WAVE SWELL AIR SEA DIR/SP/G HT/PER HT/PER (UTC) (F) (DEG/KT/KT) (MB) (FT/S) (FT/S) CHESAPEAKE LIGHT 1400 66 230/ 18/ 19 1015.7 64 E VA BEACH 1450 59 53 220/ 12/ 14 1016.0 5/10 5/10 DUCK 1400 71 68 230/ 13/ 16 1016.1 2 E DUCK 1411 58 N/A 3/12 2/12 OREGON INLET 1400 70 66 200/ 15/ 17 1017.0 13E OREGON INLT 1500 60 N/A 5/11 5/11 HATTERAS CG 1400 72 67 210/ 7/ 14 1017.9 DIAMOND BUOY 1450 74 73 230/ 16/ 19 1017.8 4/ 9 3/ 9 CAPE LOOKOUT 1500 74 220/ 11/ 15 1018.0 BEAUFORT LAB 1400 74 67 220/ 5/ 10 1017.5 30 SE NEW RVR IN 1425 69 N/A 4/ 5 2/11 27 SE WRIGHTSVLE 1408 73 71 220/ 10/ 12 1018.5 5 SE WRIGHTSVLE 1408 71 68 230/ 6/ 10 1019.0 225 S CAPE HAT 1450 74 74 160/ 12/ 12 1021.0 3/10 3/10 41 SE CHARLESTON 1450 75 73 230/ 6/ 6 1018.1 3/ 5 3/ 5 $$

USA.gov is the U.S. government's official web portal to all federal, state and local government web resources and services.